Location: Unspecified
(0.0000°N, 0.0000°E)
Time: 14:45:07
(UTC+00:00)

ITAMSAT 1 - Visible Passes

Search period start: 25 September 2021 00:00
Search period end: 05 October 2021 00:00
Orbit: 783 x 797 km, 98.9° (Epoch: 24 September)

Date Brightness Start Highest point End Pass type
(mag) Time Alt. Az. Time Alt. Az. Time Alt. Az.
25 Sep 7.8 18:56:33 10° S 19:01:46 77° WSW 19:06:56 10° NNW visible
26 Sep 7.9 18:27:23 10° SSE 18:32:21 46° ENE 18:37:17 10° N visible
26 Sep 10.8 20:10:48 10° WSW 20:11:28 10° WSW 20:12:08 10° W visible
27 Sep 9.8 19:37:55 10° SSW 19:42:06 25° WSW 19:46:16 10° NW visible
28 Sep 8.3 19:07:37 10° S 19:12:43 57° WSW 19:17:46 10° NNW visible
29 Sep 7.6 18:38:09 10° SSE 18:43:18 63° ENE 18:48:24 10° N visible
30 Sep 8.5 18:09:33 10° SE 18:13:53 27° ENE 18:18:11 10° NNE visible
30 Sep 10.2 19:49:32 10° SSW 19:53:02 18° WSW 19:56:33 10° WNW visible
01 Oct 8.9 19:18:46 10° S 19:23:39 42° WSW 19:28:30 10° NNW visible
02 Oct 7.6 18:49:02 10° SSE 18:54:15 84° ENE 18:59:25 10° N visible
03 Oct 8.2 18:20:06 10° SE 18:24:50 36° ENE 18:29:31 10° NNE visible
03 Oct 10.6 20:01:29 10° SW 20:03:58 14° WSW 20:06:27 10° WNW visible
04 Oct 9.4 19:30:02 10° SSW 19:34:35 31° WSW 19:39:07 10° NW visible
